Tracking 25703 objects as of 2-Jul-2022
HD Live streaming from Space Station
objects crossing your sky now

NOAA 16 DEB

Track NOAA 16 DEB now!
10-day predictions


NORAD ID: 41655
Int'l Code: 2000-055NU
Perigee: 818.7 km
Apogee: 850.1 km
Inclination: 98.8 °
Period: 101.4 minutes
Semi major axis: 7205 km
RCS: Unknown
Launch date: September 21, 2000
Source: United States (US)
Launch site: AIR FORCE WESTERN TEST RANGE (AFWTR)

Note: This is SATELLITE DEBRIS
aabbcc
Your satellite tracking list
Your tracking list is empty




NASA's NSSDC Master Catalog

Two Line Element Set (TLE):
1 41655U 00055NU  22182.48856720  .00001109  00000-0  54645-3 0  9994
2 41655  98.7615 266.4559 0021824  39.9982 320.2797 14.19443015320932
Source of the keplerian elements: AFSPC